Location: Waco, TX
(31.5480°N, 97.1670°W)
Time: 03:00:24
(UTC-05:00)

ISS - Pass Details

Date: 17 September 2017
Orbit: 401 x 407 km, 51.6° (Epoch: 22 September)

Event Time Altitude Azimuth Distance (km) Brightness Sun altitude
Rises 22:31:29 0° 202° (SSW) 2,302 - -37.4°
Reaches altitude 10° 22:33:43 10° 191° (S) 1,448 - -37.8°
Maximum altitude 22:36:33 28° 129° (SE) 785 - -38.4°
Drops below altitude 10° 22:39:25 10° 68° (ENE) 1,459 - -38.9°
Sets 22:41:40 0° 57° (ENE) 2,323 - -39.3°
